Regional Weather Roundup
Issued by NWS

Home | Current Version | Previous Version | Text Only | Print | Product List | Glossary Off
Versions: 1 2 3 4 5 6 7 8 9 10 11 12 13 14 15 16 17 18 19 20 21 22 23 24 25 26 27

000
ASUS43 KDMX 152207
RWRIA

WEATHER ROUNDUP FOR IOWA
NATIONAL WEATHER SERVICE DES MOINES IA
500 PM CDT TUE APR 15 2014

NOTE: "FAIR" INDICATES FEW OR NO CLOUDS BELOW 12,000 FEET WITH NO
SIGNIFICANT WEATHER AND/OR OBSTRUCTIONS TO VISIBILITY.

* - THESE STATIONS ARE NOT NWS STATIONS...THUS NOT UNDER NWS
QUALITY CONTROL.  THEY ALSO DO NOT REPORT WEATHER SUCH
AS PRECIPITATION OR FOG.

IAZ001>003-012>014-020>022-031>034-043>046-152300-
   NORTHWEST IOWA

CITY           SKY/WX    TMP DP  RH WIND       PRES   REMARKS
CARROLL *      SUNNY     45  25  45 S17       30.01F
CHEROKEE *     SUNNY     46  25  42 S15G22    29.97F
DENISON *      SUNNY     46  27  46 S14G24    29.98F
LE MARS *      SUNNY     46  25  42 S18G28    29.93F
ORANGE CITY *  MOSUNNY   45  19  36 S16G24    29.93F
SHELDON *      PTSUNNY   43  21  42 S18G26    29.93F
SIOUX CITY     MOSUNNY   51  24  34 S21       29.94F
SPENCER        MOSUNNY   42  23  46 S18G24    29.99F
STORM LAKE *   SUNNY     43  25  49 S17       29.98F
$$

IAZ055>058-069>071-079>083-090>094-152300-
   SOUTHWEST IOWA

CITY           SKY/WX    TMP DP  RH WIND       PRES   REMARKS
ATLANTIC *     SUNNY     48  23  37 S14       30.01F
AUDUBON *      SUNNY     48  18  29 S12G17    30.02F
CLARINDA *     SUNNY     50  25  37 S10G22    30.04F
COUNCIL BLFS * SUNNY     50  27  40 S16G25    29.97F
CRESTON *      SUNNY     46  23  39 S10       30.04F
HARLAN  *      SUNNY     48  25  40 S17       30.03F
LAMONI         SUNNY     48  18  30 S8        30.07F
RED OAK *      SUNNY     50  28  43 S15G21    30.01F
SHENANDOAH *   SUNNY     52  25  35 S14       30.02F
$$

IAZ047>049-059>061-072>074-084-152300-
   CENTRAL IOWA

CITY           SKY/WX    TMP DP  RH WIND       PRES   REMARKS
AMES             N/A     41  21  44 MISG      30.09F
ANKENY *       SUNNY     45  18  33 S8        30.08F
CHARITON *     SUNNY     45  21  39 VRB6G13   30.09S
DES MOINES     MOSUNNY   45  18  34 S10       30.09F
GRINNELL*      SUNNY     41  18  38 S5        30.10F
KNOXVILLE *    SUNNY     45  19  36 SW12G17   30.10S
MARSHALLTOWN   SUNNY     37  15  40 SW5       30.09F WCI  33
NEWTON *       SUNNY     41  19  42 SW9       30.10F
PELLA *        SUNNY     46  19  34 W3        30.12S
PERRY *          N/A     45  25  45 S10G17    30.06F
$$

IAZ004>006-015-016-023>025-035-036-152300-
   NORTH CENTRAL IOWA

CITY           SKY/WX    TMP DP  RH WIND       PRES   REMARKS
ALGONA *       MOSUNNY   39  18  41 S10G18    30.03F WCI  32
CLARION *      SUNNY     39  18  41 S9G15     30.05F WCI  33
ESTHERVILLE    CLOUDY    39  18  42 S14       30.00F WCI  31
FORT DODGE *   MOSUNNY   41  23  48 S10G21    30.06F
MASON CITY     SUNNY     37  14  38 VRB6      30.07F WCI  32
FOREST CITY *  SUNNY     37  16  41 S3        30.05S
IOWA FALLS *     N/A     39  19  45 S7        30.08F WCI  34
$$

IAZ007>011-017>019-026>030-037>042-050>054-066-152300-
   NORTHEAST IOWA

CITY           SKY/WX    TMP DP  RH WIND       PRES   REMARKS
CEDAR RAPIDS   SUNNY     40  13  33 W8        30.11F WCI  34
CHARLES CITY * SUNNY     36  12  38 SW10      30.08F WCI  28
CLINTON *      MOSUNNY   39  16  38 W8G17     30.16R WCI  34
DECORAH *      SUNNY     34  14  44 VRB5G13   30.08F WCI  30
DUBUQUE        MOSUNNY   36  15  42 W7        30.11R WCI  30
MONTICELLO *   SUNNY     39  12  33 NW9       30.12S WCI  33
OELWEIN *      SUNNY    N/A N/A N/A CALM      30.10F
WATERLOO       SUNNY     37  14  38 SW8       30.10F WCI  31
$$

IAZ064-065-067-068-078-152300-
   EAST CENTRAL IOWA

CITY           SKY/WX    TMP DP  RH WIND       PRES   REMARKS
DAVENPORT      SUNNY     40  15  36 W12G17    30.15S WCI  33
IOWA CITY      SUNNY     40  11  30 SW9       30.15S WCI  34
MT. PLEASANT * SUNNY     45  16  31 W7        30.14S
MUSCATINE *    SUNNY     43  10  26 W5G13     30.15S
QUAD CITIES    SUNNY     42  10  27 W13       30.13F
$$

IAZ062-063-075>077-085>089-095>099-152300-
   SOUTHEAST IOWA

CITY           SKY/WX    TMP DP  RH WIND       PRES   REMARKS
BURLINGTON     SUNNY     43  16  33 VRB6      30.13F
FAIRFIELD *    SUNNY     43  18  36 VRB5      30.13S
FORT MADISON * SUNNY     45  19  36 CALM      30.14F
KEOKUK *       SUNNY     45  18  33 W10G16    30.13F
OSKALOOSA *      N/A     43  21  42 S3        30.11F
CENTERVILLE *  SUNNY     45  18  33 SW6       30.12S
OTTUMWA        SUNNY     43  19  38 CALM      30.11F
WASHINGTON *   SUNNY     43  18  36 NW12      30.13F
$$

ABBREVIATIONS USED IN REMARKS
   TC - TEMPERATURES IN CELSIUS
  WCI - WIND CHILL INDEX
   HX - HEAT INDEX
  VSB - VISIBILITY
$$




USA.gov is the U.S. government's official web portal to all federal, state and local government web resources and services.